Address 0x877Dc0dedb8Cb0Dfe4F99cD1AC959766fe37B569

 
 
Txn Hash Method
Block
From
To
Value [Txn Fee]
0xbc3571f688739876227d39628d1f1c0e094598ea6eaa3ca9514a1f297e272eceTransfer119858472021-10-22 6:35:165 days 10 hrs ago0x877dc0dedb8cb0dfe4f99cd1ac959766fe37b569OUT0x1e09d6db2baade15ed9f212b0f0c51eb1b9267141 BNB0.000105
0xbff46e1397f30233e78c2431a4fe38f3e103395489f9d675400181df1644c38aTransfer119858262021-10-22 6:34:125 days 10 hrs ago0x877dc0dedb8cb0dfe4f99cd1ac959766fe37b569OUT0xa4751d13072f50090fae84d64a26f4548579889f1 BNB0.000105
0xbcef05c2225d6094fd71dc2ad68bec25cd9d329a77cdfe545df2f81072360886Transfer119857852021-10-22 6:32:095 days 10 hrs ago0x877dc0dedb8cb0dfe4f99cd1ac959766fe37b569OUT0x3fd47c27c85bfe81f692bed118c5e40333a189621 BNB0.000105
0xfc1bc422bb334fe6b06e61d62b0a9a986b9f2791d26abe50a17b5157ea3317b6Transfer119683072021-10-21 15:35:046 days 1 hr ago0x877dc0dedb8cb0dfe4f99cd1ac959766fe37b569OUT0x3e5adb9c59edc8216da7bc837ae585dd80af9f891.18 BNB0.000105
0xa3734ea2c6a3ac845bc1830be9feb926aff21f85a5ec1f4d48d9b1545ab2ac2bSwap Exact Token...119668122021-10-21 14:16:156 days 2 hrs ago0x877dc0dedb8cb0dfe4f99cd1ac959766fe37b569OUT PancakeSwap: Router v20 BNB0.001201425
0x7e9056a9673985d2dd3ff50589789735e6fb81cc73770b6a7f31305f7d489c0eSwap Exact Token...119667762021-10-21 14:13:546 days 2 hrs ago0x877dc0dedb8cb0dfe4f99cd1ac959766fe37b569OUT PancakeSwap: Router v20 BNB0.003029405
0xb8a5827d03c55adab27071c241dccd38df9a15093b77cfffaa2a831fea1fdf09Swap Exact Token...119667652021-10-21 14:13:116 days 2 hrs ago0x877dc0dedb8cb0dfe4f99cd1ac959766fe37b569OUT PancakeSwap: Router v20 BNB0.001360445
0x7878bb7f3ae5ccb07fc1c26f0e9304c27077cbba7dba7bacf6505024b9da1519Swap Exact Token...119667642021-10-21 14:13:076 days 2 hrs ago0x877dc0dedb8cb0dfe4f99cd1ac959766fe37b569OUT PancakeSwap: Router v20 BNB0.00144251
0xb9a9245cf24dafa8fa8120cc275c720fa3afc9ea8ba5b4fdc2ebdc3145b0e7edSwap Exact Token...119667522021-10-21 14:12:286 days 2 hrs ago0x877dc0dedb8cb0dfe4f99cd1ac959766fe37b569OUT PancakeSwap: Router v20 BNB0.00144251
0xce5af330108bfb05fd9068e52d5f43759607ca17ce16c1c4a3b460550c5f6403Swap Exact Token...119667022021-10-21 14:09:306 days 2 hrs ago0x877dc0dedb8cb0dfe4f99cd1ac959766fe37b569OUT PancakeSwap: Router v20 BNB0.001201425
0x2b1215b4bd2323aefe07bb78bb75f782506b799b561ce63726a4141bd69340e6Swap Exact Token...119666902021-10-21 14:08:546 days 2 hrs ago0x877dc0dedb8cb0dfe4f99cd1ac959766fe37b569OUT PancakeSwap: Router v20 BNB0.001201365
0x6c8e8548a1e0322853e63160dbecc5e7a59a95c4af188f5cbc4125654b8735dcTransfer119664732021-10-21 13:57:156 days 2 hrs ago0x877dc0dedb8cb0dfe4f99cd1ac959766fe37b569OUT 0x0314e5a39806c30d67b869ee1bcdabee7e08de740 BNB0.00024975
0xeae326e0d3a3cf5c70c19896d0272050a83f27b8005716bd695d74e1223b6062Transfer119664542021-10-21 13:56:096 days 2 hrs ago0x877dc0dedb8cb0dfe4f99cd1ac959766fe37b569OUT 0x0314e5a39806c30d67b869ee1bcdabee7e08de740 BNB0.000124875
0xfdd2a4f8113ccebe1395a688e1a0fa6e572f1c59d7cdde6b56874f6b64321524Swap Exact Token...119663812021-10-21 13:52:246 days 2 hrs ago0x877dc0dedb8cb0dfe4f99cd1ac959766fe37b569OUT PancakeSwap: Router v20 BNB0.001201425
0x8e2c8da4b468835e5d244a47ffb21e3bd0e2d7fabc741c31b2402c84f4b5ce27Approve119662512021-10-21 13:45:286 days 2 hrs ago0x877dc0dedb8cb0dfe4f99cd1ac959766fe37b569OUT 0x0314e5a39806c30d67b869ee1bcdabee7e08de740 BNB0.00022274
0x9e11e73104d5abc23b433e7edbe286617bf587f0d38a41812ed054b342723b0eTransfer112515002021-09-26 13:04:4231 days 3 hrs ago0x877dc0dedb8cb0dfe4f99cd1ac959766fe37b569OUT 0x0314e5a39806c30d67b869ee1bcdabee7e08de740 BNB0.000124935
0x68e57c1ab2bdc52297c9e1d9f880228945080158e96fb995ee43ba4ad26d08c7Transfer112514802021-09-26 13:03:4231 days 3 hrs ago0x877dc0dedb8cb0dfe4f99cd1ac959766fe37b569OUT 0x0314e5a39806c30d67b869ee1bcdabee7e08de740 BNB0.000124875
0x1762bc00fc659b938dc0b4ad1400e502bf38ea0a20b5f728a4e90a2a4af77404Transfer112514602021-09-26 13:02:4231 days 3 hrs ago0x877dc0dedb8cb0dfe4f99cd1ac959766fe37b569OUT 0x0314e5a39806c30d67b869ee1bcdabee7e08de740 BNB0.000124935
0x6bfa08d7b08b0a5d2594087d192d811fe97dcd0f391bdd5aa98abd8175306761Transfer112514272021-09-26 13:00:5931 days 3 hrs ago0x877dc0dedb8cb0dfe4f99cd1ac959766fe37b569OUT 0x0314e5a39806c30d67b869ee1bcdabee7e08de740 BNB0.000124875
0x8e585b8add31f5214af64cc9eb78cf2254ec374e9e27496462d3d082b6675e2aTransfer112514132021-09-26 13:00:0931 days 3 hrs ago0x877dc0dedb8cb0dfe4f99cd1ac959766fe37b569OUT 0x0314e5a39806c30d67b869ee1bcdabee7e08de740 BNB0.000124935
0x48da9d892014a15d8b4fc9d7ceb232bafea138de482841f202f905beec14a40fTransfer81659502021-06-10 4:30:43139 days 12 hrs ago0x877dc0dedb8cb0dfe4f99cd1ac959766fe37b569OUT 0xa7bd090bc58e663388be63d5e8a7b683f5a3d4fc0 BNB0.000105755
0x588500fa85101e727c03a7a4b1b90893b7c2df41e3367dfa833d9be910b07b09Transfer81658662021-06-10 4:26:31139 days 12 hrs ago0xc9c98a5a122d355fa5bc18fe78f581a74d9bc544 IN 0x877dc0dedb8cb0dfe4f99cd1ac959766fe37b5690.05 BNB0.000105
[ Download CSV Export 
Latest 5 internal transactions
Parent Txn Hash Block From To Value
0xa3734ea2c6a3ac845bc1830be9feb926aff21f85a5ec1f4d48d9b1545ab2ac2b119668122021-10-21 14:16:156 days 2 hrs ago PancakeSwap: Router v20x877dc0dedb8cb0dfe4f99cd1ac959766fe37b5690.791003055431240425 BNB
0x7e9056a9673985d2dd3ff50589789735e6fb81cc73770b6a7f31305f7d489c0e119667762021-10-21 14:13:546 days 2 hrs ago PancakeSwap: Router v20x877dc0dedb8cb0dfe4f99cd1ac959766fe37b5691.20274146159589359 BNB
0xce5af330108bfb05fd9068e52d5f43759607ca17ce16c1c4a3b460550c5f6403119667022021-10-21 14:09:306 days 2 hrs ago PancakeSwap: Router v20x877dc0dedb8cb0dfe4f99cd1ac959766fe37b5691.240349257705112009 BNB
0x2b1215b4bd2323aefe07bb78bb75f782506b799b561ce63726a4141bd69340e6119666902021-10-21 14:08:546 days 2 hrs ago PancakeSwap: Router v20x877dc0dedb8cb0dfe4f99cd1ac959766fe37b5690.75157749322957231 BNB
0xfdd2a4f8113ccebe1395a688e1a0fa6e572f1c59d7cdde6b56874f6b64321524119663812021-10-21 13:52:246 days 2 hrs ago PancakeSwap: Router v20x877dc0dedb8cb0dfe4f99cd1ac959766fe37b5690.164865087334388907 BNB
[ Download CSV Export 
Loading

Contract Name:
0 BNB

Compiler Version
0

Optimization Enabled:
0 BNB

Other Settings:
-NA-
Block Transaction Gas Used Reward
Age Block Fee Address BC Fee Address Voting Power Jailed Incoming
Block Uncle Number Difficulty Gas Used Reward
Loading
Loading
Make sure to use the "Vote Down" button for any spammy posts, and the "Vote Up" for interesting conversations.